When you browse on this site, cookies collect data to enhance your experience and personalize the content and advertising you see.
Visit our Privacy Policy to learn more. By continuing to use the site, you agree to this use of cookies and data.
  • Em Portugal
  • Lista de países
  • Para 7 dias
  • Temperatura da água
  • Mapa do tempo
  • Widgets de tempo
  • user-avatar
    Iniciar Sessão

    Previsão horária em Smolan

    Hoje, 28 Março, Sábado

    Tempo Temperatura Precipitação Vento Pressão Humidade
    00:00 +1°C° 0 mm 2 m/s 651 mmHg 91%
    01:00 +1°C° 0 mm 2 m/s 651 mmHg 91%
    02:00 +1°C° 0 mm 1 m/s 651 mmHg 91%
    03:00 +1°C° 0 mm 1 m/s 651 mmHg 90%
    04:00 +1°C° 0 mm 1 m/s 650 mmHg 90%
    05:00 +1°C° 0 mm 1 m/s 650 mmHg 90%
    06:00 +2°C° 0 mm 1 m/s 651 mmHg 88%
    07:00 +2°C° 0 mm 1 m/s 651 mmHg 86%
    08:00 +3°C° 0 mm 1 m/s 651 mmHg 84%
    09:00 +4°C° 0 mm 1 m/s 651 mmHg 79%
    10:00 +4°C° 0 mm 2 m/s 652 mmHg 75%
    11:00 +5°C° 0 mm 2 m/s 652 mmHg 70%
    12:00 +5°C° 0 mm 2 m/s 652 mmHg 70%
    13:00 +6°C° 0 mm 2 m/s 651 mmHg 71%
    14:00 +6°C° 0 mm 2 m/s 651 mmHg 72%
    15:00 +6°C° 0.1 mm 1 m/s 651 mmHg 75%
    16:00 +6°C° 0.1 mm 1 m/s 651 mmHg 78%
    17:00 +5°C° 0.1 mm 1 m/s 650 mmHg 81%
    18:00 +5°C° 0.1 mm 1 m/s 650 mmHg 85%
    19:00 +4°C° 0.1 mm 1 m/s 650 mmHg 89%
    20:00 +2°C° 0.1 mm 0 m/s 650 mmHg 93%
    21:00 +2°C° 0.1 mm 0 m/s 650 mmHg 93%
    22:00 +2°C° 0.1 mm 0 m/s 650 mmHg 93%
    23:00 +2°C° 0.1 mm 0 m/s 650 mmHg 94%

    Amanhã, 29 Março, Domingo

    Tempo Temperatura Precipitação Vento Pressão Humidade
    00:00 +1°C° 0 mm 0 m/s 650 mmHg 93%
    01:00 +2°C° 0 mm 1 m/s 649 mmHg 93%
    02:00 +2°C° 0 mm 1 m/s 649 mmHg 93%
    03:00 +2°C° 0 mm 1 m/s 649 mmHg 92%
    04:00 +2°C° 0 mm 1 m/s 649 mmHg 92%
    05:00 +2°C° 0 mm 1 m/s 649 mmHg 92%
    06:00 +3°C° 0 mm 1 m/s 649 mmHg 89%
    07:00 +2°C° 0 mm 0 m/s 649 mmHg 87%
    08:00 +3°C° 0 mm 0 m/s 649 mmHg 84%
    09:00 +5°C° 0 mm 1 m/s 650 mmHg 79%
    10:00 +7°C° 0 mm 1 m/s 650 mmHg 73%
    11:00 +8°C° 0 mm 1 m/s 651 mmHg 67%
    12:00 +8°C° 0.2 mm 1 m/s 651 mmHg 66%
    13:00 +8°C° 0.2 mm 1 m/s 650 mmHg 65%
    14:00 +9°C° 0.2 mm 1 m/s 650 mmHg 64%
    15:00 +8°C° 0.3 mm 1 m/s 650 mmHg 66%
    16:00 +8°C° 0.3 mm 1 m/s 650 mmHg 68%
    17:00 +8°C° 0.3 mm 1 m/s 650 mmHg 70%
    18:00 +6°C° 0.1 mm 1 m/s 649 mmHg 76%
    19:00 +5°C° 0.1 mm 1 m/s 649 mmHg 82%
    20:00 +2°C° 0.1 mm 0 m/s 649 mmHg 88%
    21:00 +3°C° 0 mm 1 m/s 649 mmHg 87%
    22:00 +3°C° 0 mm 1 m/s 650 mmHg 87%
    23:00 +2°C° 0 mm 1 m/s 650 mmHg 86%

    Depois de amanhã, 30 Março, Segunda-feira

    Tempo Temperatura Precipitação Vento Pressão Humidade
    00:00 +2°C° 0 mm 1 m/s 649 mmHg 86%
    01:00 +2°C° 0 mm 1 m/s 649 mmHg 86%
    02:00 +2°C° 0 mm 1 m/s 649 mmHg 85%
    03:00 +2°C° 0 mm 1 m/s 649 mmHg 85%
    04:00 +2°C° 0 mm 1 m/s 649 mmHg 85%
    05:00 +1°C° 0 mm 1 m/s 649 mmHg 85%
    06:00 +3°C° 0 mm 1 m/s 650 mmHg 81%
    07:00 +3°C° 0 mm 0 m/s 650 mmHg 78%
    08:00 +5°C° 0 mm 0 m/s 651 mmHg 74%
    09:00 +7°C° 0 mm 1 m/s 651 mmHg 70%
    10:00 +9°C° 0 mm 1 m/s 652 mmHg 65%
    11:00 +9°C° 0 mm 2 m/s 652 mmHg 61%
    12:00 +9°C° 0.2 mm 2 m/s 652 mmHg 61%
    13:00 +9°C° 0.2 mm 2 m/s 652 mmHg 60%
    14:00 +10°C° 0.2 mm 2 m/s 651 mmHg 60%
    15:00 +9°C° 0.4 mm 2 m/s 651 mmHg 65%
    16:00 +8°C° 0.4 mm 2 m/s 650 mmHg 69%
    17:00 +7°C° 0.4 mm 2 m/s 650 mmHg 73%
    18:00 +7°C° 0.1 mm 1 m/s 650 mmHg 78%
    19:00 +6°C° 0.1 mm 1 m/s 650 mmHg 83%
    20:00 +4°C° 0.1 mm 0 m/s 649 mmHg 88%
    21:00 +4°C° 0 mm 1 m/s 649 mmHg 86%
    22:00 +4°C° 0 mm 1 m/s 649 mmHg 85%
    23:00 +4°C° 0 mm 1 m/s 649 mmHg 84%

    31 Março, Terça-feira

    Tempo Temperatura Precipitação Vento Pressão Humidade
    00:00 +4°C° 0 mm 1 m/s 649 mmHg 82%
    01:00 +4°C° 0 mm 1 m/s 649 mmHg 80%
    02:00 +4°C° 0 mm 1 m/s 649 mmHg 78%
    03:00 +3°C° 0 mm 1 m/s 649 mmHg 79%
    04:00 +3°C° 0 mm 1 m/s 649 mmHg 81%
    05:00 +3°C° 0 mm 1 m/s 649 mmHg 82%
    06:00 +4°C° 0 mm 1 m/s 649 mmHg 82%
    07:00 +5°C° 0 mm 1 m/s 649 mmHg 81%
    08:00 +6°C° 0 mm 1 m/s 650 mmHg 81%
    09:00 +6°C° 0.1 mm 2 m/s 650 mmHg 77%
    10:00 +6°C° 0.1 mm 2 m/s 651 mmHg 73%
    11:00 +7°C° 0.1 mm 2 m/s 651 mmHg 70%
    12:00 +7°C° 0.3 mm 3 m/s 651 mmHg 71%
    13:00 +7°C° 0.3 mm 3 m/s 651 mmHg 72%
    14:00 +7°C° 0.3 mm 3 m/s 651 mmHg 73%
    15:00 +5°C° 0.3 mm 3 m/s 651 mmHg 76%
    16:00 +6°C° 0.3 mm 2 m/s 650 mmHg 80%
    17:00 +5°C° 0.3 mm 2 m/s 650 mmHg 84%
    18:00 +4°C° 0.3 mm 2 m/s 650 mmHg 86%
    19:00 +4°C° 0.3 mm 2 m/s 651 mmHg 89%
    20:00 +4°C° 0.3 mm 1 m/s 651 mmHg 91%
    21:00 +3°C° 0.3 mm 1 m/s 651 mmHg 92%
    22:00 +3°C° 0.3 mm 1 m/s 652 mmHg 93%
    23:00 +3°C° 0.3 mm 1 m/s 652 mmHg 94%

    1 Abril, Quarta-feira

    Tempo Temperatura Precipitação Vento Pressão Humidade
    00:00 +2°C° 0.9 mm 1 m/s 652 mmHg 95%
    01:00 +2°C° 0.9 mm 1 m/s 652 mmHg 95%
    02:00 +2°C° 0.9 mm 1 m/s 652 mmHg 96%
    03:00 +1°C° 0.8 mm 1 m/s 652 mmHg 96%
    04:00 +1°C° 0.8 mm 1 m/s 651 mmHg 96%
    05:00 +1°C° 0.8 mm 1 m/s 651 mmHg 97%
    06:00 +1°C° 1.3 mm 1 m/s 651 mmHg 97%
    07:00 0°C° 1.3 mm 1 m/s 651 mmHg 97%
    08:00 0°C° 1.3 mm 1 m/s 651 mmHg 97%
    09:00 -2°C° 2.3 mm 2 m/s 651 mmHg 97%
    10:00 -2°C° 2.3 mm 2 m/s 651 mmHg 97%
    11:00 -2°C° 2.3 mm 2 m/s 651 mmHg 97%
    12:00 -2°C° 1.6 mm 2 m/s 651 mmHg 97%
    13:00 -2°C° 1.6 mm 2 m/s 651 mmHg 97%
    14:00 -2°C° 1.6 mm 2 m/s 651 mmHg 97%
    15:00 -3°C° 1.6 mm 2 m/s 650 mmHg 97%
    16:00 -3°C° 1.6 mm 2 m/s 650 mmHg 97%
    17:00 -3°C° 1.6 mm 2 m/s 650 mmHg 97%
    18:00 -4°C° 0.8 mm 2 m/s 650 mmHg 96%
    19:00 -4°C° 0.8 mm 2 m/s 650 mmHg 96%
    20:00 -5°C° 0.8 mm 2 m/s 650 mmHg 95%
    21:00 -6°C° 0.8 mm 3 m/s 650 mmHg 95%
    22:00 -7°C° 0.8 mm 3 m/s 651 mmHg 95%
    23:00 -7°C° 0.8 mm 3 m/s 651 mmHg 95%

    2 Abril, Quinta-feira

    Tempo Temperatura Precipitação Vento Pressão Humidade
    00:00 -7°C° 0.4 mm 3 m/s 651 mmHg 95%
    01:00 -7°C° 0.4 mm 3 m/s 651 mmHg 94%
    02:00 -6°C° 0.4 mm 2 m/s 651 mmHg 94%
    03:00 -7°C° 0 mm 2 m/s 651 mmHg 94%
    04:00 -8°C° 0 mm 2 m/s 651 mmHg 93%
    05:00 -8°C° 0 mm 2 m/s 651 mmHg 93%
    06:00 -7°C° 0 mm 2 m/s 651 mmHg 91%
    07:00 -6°C° 0 mm 2 m/s 652 mmHg 90%
    08:00 -4°C° 0 mm 2 m/s 653 mmHg 88%
    09:00 -1°C° 0 mm 1 m/s 653 mmHg 89%
    10:00 0°C° 0 mm 1 m/s 654 mmHg 90%
    11:00 +2°C° 0 mm 1 m/s 654 mmHg 90%
    12:00 +2°C° 0 mm 1 m/s 654 mmHg 90%
    13:00 +2°C° 0 mm 1 m/s 654 mmHg 89%
    14:00 +3°C° 0 mm 1 m/s 654 mmHg 89%
    15:00 +3°C° 0 mm 1 m/s 654 mmHg 89%
    16:00 +2°C° 0 mm 1 m/s 654 mmHg 90%
    17:00 +2°C° 0 mm 1 m/s 653 mmHg 90%
    18:00 +1°C° 0 mm 1 m/s 653 mmHg 92%
    19:00 -1°C° 0 mm 1 m/s 652 mmHg 93%
    20:00 -3°C° 0 mm 0 m/s 652 mmHg 94%
    21:00 -4°C° 0 mm 0 m/s 652 mmHg 93%
    22:00 -3°C° 0 mm 1 m/s 652 mmHg 92%
    23:00 -3°C° 0 mm 1 m/s 652 mmHg 92%
    Mostrar mais